Volver al catálogo

INTELSAT 4A-F1

ActivoComunicacionesGEO
NORAD 8330·PAYLOAD· XX

Lanzado Sep 26, 1975 desde Cape Canaveral Space Force Station

Loading…

TLE

ActualizadoSource: Space-Track

Época: Sep 14, 2026, 18:16 UTC

1 08330U 75091A   26257.76123421  .00000104  00000-0  00000-0 0  9999
2 08330   7.6845 303.7113 0006077 265.8789 278.1113  0.99925359122367

Sigue INTELSAT 4A-F1 en tiempo real con AllMySat

Download on the App Store